This demonstration page uses our WeatherBlox Daily Observations layout. Learn more.

38.89511, -77.03637

Hourly Observations for November 6, 2017

Temp ( °F °C ) Dew Point ( °F °C ) Humidity (%) Winds ( mph kmh ) Pressure ( in mb ) Visibility ( mi km ) Precip ( " mm )
12:10 am 00:10 Cloudy 61 16.1 60 15.6 97 97 S 13 20 30.03 1017 10 16.09344 0 0
12:29 am 00:29 Cloudy 61 16.1 60 15.6 97 97 SSW 12 19 30.03 1017 10 16.09344 0 0
12:52 am 00:52 Cloudy 62 16.7 60 15.6 93 93 SSW 13 20 30 1016 10 16.09344 0 0
1:50 am 01:50 Cloudy 63 17 61 16 94 94 SSW 13 20 30 1016 10 16.09344 0 0
1:52 am 01:52 Cloudy 62 16.7 60 15.6 93 93 SSW 12 19 30 1016 10 16.09344 0 0
2:52 am 02:52 Mostly Cloudy 60 15.6 59 15 96 96 S 14 22 29.97 1015 10 16.09344 0 0
3:52 am 03:52 Cloudy 62 16.7 60 15.6 93 93 WSW 7 11 29.97 1015 10 16.09344 0 0
4:38 am 04:38 Cloudy 61 16.1 60 15.6 97 97 S 9 15 29.97 1015 10 16.09344 0 0
4:52 am 04:52 Cloudy 62 16.7 60 15.6 93 93 S 7 11 29.94 1014 10 16.09344 0 0
5:24 am 05:24 Cloudy 61 16.1 59 15 93 93 S 9 15 29.97 1015 10 16.09344 0 0
5:52 am 05:52 Cloudy 61 16.1 60 15.6 97 97 S 9 15 29.94 1014 10 16.09344 0 0
6:52 am 06:52 Cloudy 62 16.7 60 15.6 93 93 S 8 13 29.94 1014 10 16.09344 0 0
7:52 am 07:52 Cloudy 63 17.2 60 15.6 90 90 SW 8 13 29.97 1015 10 16.09344 0 0
8:52 am 08:52 Cloudy 63 17.2 60 15.6 90 90 SW 7 11 29.97 1015 10 16.09344 0 0
9:52 am 09:52 Mostly Cloudy 65 18.3 61 16.1 87 87 SSW 12 19 29.97 1015 10 16.09344 0 0
10:10 am 10:10 Mostly Cloudy 65 18.3 60 15.6 84 84 SSW 10 17 29.97 1015 10 16.09344 0 0
10:52 am 10:52 Mostly Cloudy 65 18.3 60 15.6 84 84 S 14 22 29.91 1013 10 16.09344 0 0
11:52 am 11:52 Mostly Cloudy 68 20 61 16.1 78 78 SSW 9 15 29.94 1014 10 16.09344 0 0
12:52 pm 12:52 Mostly Cloudy 69 20.6 61 16.1 76 76 SSE 7 11 29.91 1013 10 16.09344 0 0
1:52 pm 13:52 Partly Cloudy 70 21.1 62 16.7 76 76 S 7 11 29.91 1013 10 16.09344 0 0
2:52 pm 14:52 Mostly Cloudy 68 20 61 16.1 78 78 S 9 15 29.91 1013 10 16.09344 0 0
3:52 pm 15:52 Mostly Cloudy 68 20 61 16.1 78 78 S 8 13 29.94 1014 10 16.09344 0 0
4:52 pm 16:52 Mostly Cloudy 67 19.4 61 16.1 81 81 S 5 7 29.94 1014 10 16.09344 0 0
5:52 pm 17:52 Cloudy 70 21.1 62 16.7 76 76 NNW 14 22 29.97 1015 10 16.09344 0 0
6:52 pm 18:52 Cloudy 67 19.4 62 16.7 84 84 N 9 15 30.03 1017 10 16.09344 0.001 0.001
7:52 pm 19:52 Cloudy 66 18.9 59 15 78 78 NW 13 20 30.06 1018 10 16.09344 0 0
8:02 pm 20:02 Cloudy with Thunderstorms 66 18.9 58 14.4 75 75 NW 14 22 30.06 1018 10 16.09344 0 0
8:17 pm 20:17 Cloudy with Nearby Thunderstorms 65 18.3 57 13.9 76 76 NNW 12 19 30.09 1019 10 16.09344 0 0
8:23 pm 20:23 Cloudy 65 18.3 56 13.3 73 73 NNW 9 15 30.09 1019 10 16.09344 0 0
8:52 pm 20:52 Mostly Cloudy 63 17.2 56 13.3 78 78 NNW 10 17 30.06 1018 10 16.09344 0 0
9:52 pm 21:52 Partly Cloudy 61 16.1 52 11.1 72 72 N 12 19 30.09 1019 10 16.09344 0 0
10:46 pm 22:46 Mostly Cloudy 59 15 52 11 77 77 NNW 14 22 30.12 1020 10 16.09344 0 0
10:52 pm 22:52 Mostly Cloudy 59 15 51 10.6 75 75 NNW 15 24 30.09 1019 10 16.09344 0 0
11:12 pm 23:12 Mostly Clear 58 14.4 50 10 75 75 NNE 12 19 30.12 1020 10 16.09344 0 0
11:52 pm 23:52 Partly Cloudy 57 13.9 49 9.4 74 74 N 14 22 30.12 1020 10 16.09344 0 0

Powered by AerisWeather